カタログに戻る

COSMOS 2303

運用中軍事PO
NORAD 23445·PAYLOAD·🇷🇺 Russia

打ち上げ Dec 26, 1994 から Plesetsk Cosmodrome

Loading…

次のパス (今後24時間)

TLE

最新Source: Space-Track

元期: Sep 14, 2026, 19:36 UTC

1 23445U 94086E   26257.81693473  .00000004  00000-0 -35294-4 0  9990
2 23445  82.5715 288.9863 0011438  11.7642 162.2996 12.60563969459279

AllMySatでCOSMOS 2303をリアルタイム追跡

Download on the App Store